TimeMST,TemperatureF,Dew PointF,Humidity,Sea Level PressureIn,VisibilityMPH,Wind Direction,Wind SpeedMPH,Gust SpeedMPH,PrecipitationIn,Events,Conditions,WindDirDegrees,DateUTC
12:51 AM,19.9,15.1,81,30.14,10.0,West,6.9,-,N/A,,Clear,270,2013-01-25 07:51:00
1:51 AM,19.0,14.0,81,30.14,10.0,WNW,6.9,-,N/A,,Clear,290,2013-01-25 08:51:00
2:51 AM,19.0,14.0,81,30.13,10.0,Calm,Calm,-,N/A,,Clear,0,2013-01-25 09:51:00
4:51 AM,12.9,8.1,81,30.14,10.0,Calm,Calm,-,N/A,,Clear,0,2013-01-25 11:51:00
5:51 AM,10.9,3.9,73,30.14,10.0,Calm,Calm,-,N/A,,Clear,0,2013-01-25 12:51:00
6:51 AM,10.0,5.0,80,30.16,10.0,Calm,Calm,-,N/A,,Clear,0,2013-01-25 13:51:00
7:51 AM,9.0,3.9,80,30.18,10.0,Calm,Calm,-,N/A,,Clear,0,2013-01-25 14:51:00
8:51 AM,12.9,9.0,84,30.17,10.0,Calm,Calm,-,N/A,,Clear,0,2013-01-25 15:51:00
9:51 AM,18.0,12.9,81,30.17,10.0,Calm,Calm,-,N/A,,Clear,0,2013-01-25 16:51:00
10:51 AM,21.9,14.0,72,30.16,10.0,ESE,3.5,-,N/A,,Clear,110,2013-01-25 17:51:00
11:51 AM,28.9,19.9,69,30.13,10.0,Calm,Calm,-,N/A,,Clear,0,2013-01-25 18:51:00
12:51 PM,39.0,24.1,55,30.09,10.0,WSW,6.9,-,N/A,,Clear,250,2013-01-25 19:51:00
1:51 PM,41.0,25.0,53,30.08,10.0,WSW,6.9,-,N/A,,Clear,250,2013-01-25 20:51:00
2:51 PM,39.9,25.0,55,30.06,10.0,SW,8.1,-,N/A,,Clear,230,2013-01-25 21:51:00
3:51 PM,39.0,25.0,57,30.08,10.0,SSW,3.5,-,N/A,,Clear,210,2013-01-25 22:51:00
4:51 PM,33.1,24.1,70,30.08,10.0,SSW,5.8,-,N/A,,Clear,200,2013-01-25 23:51:00
5:51 PM,37.9,24.1,57,30.08,10.0,SW,10.4,-,N/A,,Clear,230,2013-01-26 00:51:00
6:51 PM,36.0,23.0,59,30.07,10.0,SSW,11.5,-,N/A,,Clear,210,2013-01-26 01:51:00
7:51 PM,37.9,23.0,55,30.05,10.0,SW,11.5,-,N/A,,Clear,220,2013-01-26 02:51:00
8:51 PM,37.9,23.0,55,30.03,10.0,SSW,13.8,-,N/A,,Clear,210,2013-01-26 03:51:00
9:51 PM,37.9,21.9,53,30.01,10.0,SSW,11.5,-,N/A,,Clear,200,2013-01-26 04:51:00
11:51 PM,32.0,21.9,66,29.99,10.0,East,5.8,-,N/A,,Mostly Cloudy,90,2013-01-26 06:51:00